F5IOR-13 Weather Reports


Display with metric or nautical units.
time (UTC)temp
F
wind
direction
speed
MPH
gust
MPH
rain 1hr
in
rain 24hr
in
rain mn
in
humidity
%
barometer
mb
20260506133817 58 230 9.0 20.0 0.13 0.00 0.13 64 981.2
20260506130817 59 240 8.0 17.0 0.13 0.00 0.13 66 981.3
20260506123817 59 240 8.0 17.0 0.13 0.00 0.13 68 981.3
20260506120817 58 244 9.0 18.0 0.13 0.00 0.13 71 981.5
20260506113817 57 250 9.0 18.0 0.13 0.00 0.13 71 981.6
20260506110817 56 258 9.0 18.0 0.09 0.00 0.09 73 981.8
20260506103817 55 259 9.0 18.0 0.09 0.00 0.09 75 981.9
20260506100817 55 259 9.0 17.0 0.09 0.00 0.09 80 981.8
20260506093817 54 259 9.0 17.0 0.09 0.00 0.09 80 981.8
20260506092217 53 258 9.0 16.0 0.09 0.00 0.09 82 981.8
20260506090616 53 257 9.0 16.0 0.09 0.00 0.09 83 981.7
20260506085017 53 255 9.0 16.0 0.09 0.00 0.09 84 981.4
20260506083416 53 256 9.0 15.0 0.09 0.00 0.09 86 981.0
20260506082617 53 256 9.0 15.0 0.09 0.00 0.09 86 981.0
20260506081817 53 248 9.0 15.0 0.36 0.01 0.36 86 981.0
20260506081016 52 241 5.0 11.0 0.36 0.01 0.36 91 981.3
20260506080217 52 241 5.0 11.0 0.36 0.01 0.36 91 981.3
20260506073517 51 252 5.0 11.0 0.36 0.01 0.36 92 981.3
20260505190829 56 277 7.0 18.0 0.14 0.00 0.14 72 980.5
20260505183829 58 279 11.0 19.0 0.14 0.00 0.14 63 980.6
20260505180829 59 274 9.0 17.0 0.14 0.00 0.14 65 980.4
20260505173829 59 215 2.0 12.0 0.14 0.00 0.14 75 979.9
20260505170829 59 145 4.0 12.0 0.14 0.00 0.14 79 979.9
20260505163829 58 188 3.0 24.0 0.29 0.00 0.29 76 980.0
20260505160829 59 215 3.0 24.0 0.29 0.02 0.29 72 979.9
20260505150829 64 240 5.0 16.0 0.29 0.00 0.29 67 980.1